SCP
0 0 0 0 0 0 0 0 0 0 0 0 0 0 0 0 0 0 0 -0 -0 -0 -0 -0 0 0 0 0 0 0 0 0 0 0 0 0 0 0 0 0 0 0 0 0
0 0 0 0 0 0 0 0 0 0 0 0 0 0 0 0 0 0 0 0 0 0 0 0 0 0 0 0 0 0 0 0 0 0 0 0 0 0 0 0 0 0 0 0
0 0 0 0 0 0 0 0 0 0 0 0 0 0 0 0 0 0 0 0 0 0 0 0 0 0 0 0 0 0 0 0 0 0 0 0 0 0 0 0 0 0 0 0
0 0 0 0 0 0 0 0 0 0 0 0 0 0 0 0 0 0 0 0 0 0 0 0 0 0 0 0 0 0 0 0 0 0 0 0 0 0 0 0 0 0 0 0
0 0 0 0 0 0 0 0 0 0 0 0 0 0 0 0 0 0 0 0 0 0 0 0 0 0 0 0 0 0 0 0 0 0 0 0 0 0 0 0 0 0 0 0
0 0 0 0 0 0 0 0 0 0 0 0 0 0 0 0 0 0 0 0 0 0 0 0 0 0 0 0 0 0 0 0 0 0 0 0 0 0 0 0 0 0 0 0
0 0 0 0 0 -0 0 0 0 0 0 0 0 0 0 0 0 0 0 0 0 0 0 0 0 0 0 0 0 0 0 0 0 0 0 0 0 0 0 0 0 0 0 0
0 0 0 0 0 0 0 0 0 0 0 0 0 0 0 0 0 0 0 0 0 0 0 0 0 0 0 0 0 0 0 0 0 0 0 0 0 0 0 0 0 0 0 0
0 0 0 -0 -0 -0 0 0 0 0 0 0 0 0 0 0 0 0 0 0 0 0 0 -0 0 0 0 0 0 0 0 0 0 0 0 0 0 0 0 0 0 0 0 0
0 0 0 0 0 0 0 0 0 0 0 0 0 0 0 0 0 0 0 -0 -0 0 -0 -0 0 0 0 0 0 0 0 0 0 0 0 0 0 0 0 0 0 0 0 0
0 0 0 0 0 0 0 0 0 0 0 0 0 0 0 0 0 0 0 0 -0 -0 0 0 -0 0 0 0 0 0 0 0 0 0 0 0 0 0 0 0 0 0 0 0
0 0 0 0 0 0 0 0 0 0 0 0 0 0 0 0 0 0 0 0 0 -0 0 0 0 0 0 0 0 0 0 0 0 0 0 0 0 0 0 0 0 0 0 0
0 0 0 0 0 0 0 0 0 0 0 0 0 0 0 0 0 0 0 0 0 0 0 0 0 0 0 0 0 0 0 0 0 0 0 0 0 0 0 0 0 0 0 0
0 0 0 0 0 0 0 0 0 0 0 0 0 0 0 0 0 0 0 0 0 0 0 0 0 0 0 0 0 0 0 0 0 0 0 0 0 0 0 0 0 0 0 0
0 0 0 0 0 0 0 0 0 0 0 0 0 0 0 0 0 0 0 0 0 0 0 0 0 0 0 0 0 0 0 0 0 0 0 0 0 0 0 0 0 0 0 0
0 0 0 0 0 0 0 0 0 0 0 0 0 0 0 0 0 0 0 0 0 0 0 0 0 0 0 0 0 0 0 0 0 0 0 0 0 0 0 0 0 0 0 0
0 0 0 0 0 0 0 0 0 0 0 0 0 0 0 0 0 0 0 0 0 0 0 0 0 0 0 0 0 0 0 0 0 0 0 0 0 0 0 0 0 0 0 0
0 0 0 0 0 0 0 0 0 0 0 0 0 0 0 0 0 0 0 0 0 0 0 0 0 0 0 0 0 0 0 0 0 0 0 0 0 0 0 0 0 0 0 0
0 0 0 0 0 0 0 0 0 0 0 0 0 0 0 0 0 0 0 0 0 0 0 0 0 0 0 0 0 0 0 0 0 0 0 0 0 0 0 0 0 0 0 0
0 0 0 0 0 0 0 0 0 0 0 0 0 0 0 0 0 0 0 0 0 0 0 0 0 0 0 0 0 0 0 0 0 0 0 0 0 0 0 0 0 0 0 0
0 0 0 0 0 0 0 0 0 0 0 0 0 0 0 0 0 0 0 0 0 0 0 0 0 0 0 0 0 0 0 0 0 0 0 0 0 0 0 0 0 0 0 0
0 0 0 0 0 0 0 0 0 0 0 0 0 0 0 0 0 0 0 0 0 0 0 0 0 0 0 0 0 0 0 0 0 0 0 0 0 0 0 0 0 0 0 0
0 0 0 0 0 0 0 0 0 0 0 0 0 0 0 0 0 0 0 0 0 0 0 0 0 0 0 0 0 0 0 0 0 0 0 0 0 0 0 0 0 0 0 0
0 0 0 0 0 0 0 0 0 0 0 0 0 0 0 0 0 0 0 0 0 0 0 0 0 0 0 0 0 0 0 0 0 0 0 0 0 0 0 0 0 0 0 0
0 0 0 0 0 0 0 0 0 0 0 0 0 0 0 0 0 0 0 0 0 0 0 0 0 0 0 0 0 0 0 0 0 0 0 0 0 0 0 0 0 0 0 0
0 0 0 0 0 0 0 0 0 0 0 0 0 0 0 0 0 0 0 0 0 0 0 0 0 0 0 0 0 0 0 0 0 0 0 0 0 0 0 0 0 0 0 0
0 0 0 0 0 0 0 0 0 0 0 0 0 0 0 0 0 0 0 0 0 0 0 0 0 0 0 0 0 0 0 0 0 0 0 0 0 0 0 0 0 0 0 0
Wind_Speed
3 3 3 4 5 4 4 6 6 6 6 7 5 5 3 2 1 0 1 1 0 0 1 1 1 1 2 2 2 1 1 2 3 3 3 2 2 2 2 3 3 3 3 3
2 2 2 4 6 6 6 5 6 5 7 5 4 2 2 2 2 2 2 2 1 1 1 1 2 2 2 2 2 2 2 3 2 2 2 2 3 3 2 3 3 3 3 3
3 4 3 5 6 6 4 4 5 7 7 2 1 3 4 3 3 3 3 2 2 2 3 3 3 3 3 3 2 2 2 3 2 2 2 3 3 2 3 3 3 3 3 4
1 1 5 6 2 3 3 4 4 4 3 2 3 3 2 3 3 3 3 2 2 2 3 2 2 2 2 2 1 1 2 3 3 3 3 2 2 3 4 3 3 4 4 4
2 2 6 6 3 2 2 4 3 4 3 2 0 2 3 2 2 3 3 3 3 3 3 2 2 2 1 1 1 1 2 3 3 3 3 2 3 4 3 3 3 4 3 4
3 3 6 6 2 1 1 4 3 3 3 2 1 0 5 3 2 2 2 2 2 2 1 1 2 1 1 2 2 3 4 4 3 3 3 3 4 4 3 3 4 4 4 4
4 5 8 6 3 1 2 5 2 2 3 3 4 5 4 3 3 2 2 2 2 1 1 2 2 1 1 2 4 5 4 4 3 3 4 4 3 3 3 3 3 3 4 3
4 4 9 3 2 4 5 3 2 2 2 3 3 3 3 3 3 3 3 2 1 1 2 2 2 1 2 4 5 4 3 3 3 3 3 3 2 3 2 3 3 3 3 3
7 8 5 2 4 3 2 3 3 3 3 3 3 3 3 4 3 3 3 3 2 2 2 3 2 2 3 5 4 3 3 4 4 3 3 3 3 3 3 3 3 3 3 4
4 6 5 4 4 4 3 4 4 3 3 3 4 4 4 4 4 3 3 3 2 2 3 4 3 3 4 4 3 3 3 4 3 3 3 3 2 3 3 3 4 4 4 4
5 6 5 5 5 5 4 3 3 4 4 4 4 4 5 4 4 4 4 3 3 3 4 4 4 4 4 3 2 3 3 4 3 3 3 3 3 3 4 4 5 5 5 5
7 6 5 6 6 4 4 4 4 4 4 4 4 5 5 5 4 4 4 3 3 3 4 4 4 5 5 4 3 3 3 3 3 3 2 2 2 3 4 4 6 7 6 5
7 5 5 6 5 4 4 5 5 4 5 5 4 4 4 4 3 3 3 4 4 4 4 4 4 5 5 4 3 4 4 4 3 3 3 3 3 3 3 3 3 5 5 6
6 4 5 5 6 5 4 4 3 3 4 4 3 2 2 2 3 3 4 5 4 4 4 4 4 6 6 4 4 4 5 5 5 4 4 3 3 3 3 3 3 2 4 6
6 6 7 5 4 4 3 2 2 3 3 3 2 2 2 2 3 4 5 4 3 4 4 4 5 6 5 4 4 5 4 4 4 4 4 4 4 3 3 4 3 3 2 3
5 4 4 4 5 4 2 2 3 4 3 3 3 3 3 3 3 4 4 3 3 4 5 5 6 7 5 4 4 4 4 7 6 4 3 3 4 4 4 4 4 3 3 3
3 4 4 4 4 4 3 4 4 4 4 3 4 3 2 2 3 4 4 4 3 4 5 5 6 6 5 5 4 4 4 5 7 5 4 4 4 4 4 4 5 4 4 4
6 7 6 6 5 4 4 3 4 4 4 4 3 2 2 2 4 4 4 4 4 5 5 5 5 5 5 5 4 4 4 4 4 4 4 4 4 4 4 5 5 5 3 3
4 5 5 5 4 4 3 3 4 4 3 2 2 3 3 4 4 4 3 3 3 5 6 5 8 6 6 6 6 3 4 4 4 4 4 5 5 4 4 4 4 4 4 3
3 4 4 4 3 3 3 3 2 3 3 2 2 2 3 4 3 3 3 3 4 5 5 6 6 5 5 5 6 4 4 4 5 4 4 4 4 4 4 4 4 4 4 4
4 4 4 3 3 3 3 3 2 3 3 2 2 3 4 4 3 3 3 4 6 5 5 7 5 4 4 5 6 4 4 4 4 4 4 4 4 4 4 4 4 4 4 4
3 3 4 3 3 3 3 2 2 2 3 3 3 3 3 4 4 4 4 4 5 6 5 4 4 6 6 6 3 3 4 4 4 4 4 4 4 4 4 4 5 4 4 4
3 3 3 3 3 3 3 2 2 2 3 3 3 3 3 4 3 3 5 4 4 6 5 4 6 8 8 4 3 4 4 5 4 4 4 3 3 3 3 4 4 3 3 3
3 4 4 3 2 2 2 3 2 2 3 3 3 3 3 3 3 3 4 5 7 7 4 6 8 8 7 3 3 4 4 4 4 3 2 2 2 2 2 2 2 2 2 3
3 3 3 2 2 3 3 3 2 2 2 2 3 3 3 2 3 4 3 4 6 6 4 6 8 8 4 3 3 3 4 4 3 2 2 2 2 2 1 1 2 2 2 2
3 3 3 3 3 3 2 2 2 2 2 3 3 3 3 2 3 3 3 3 4 5 4 3 4 4 3 3 3 3 3 4 3 2 2 1 1 1 1 1 2 2 2 2
3 2 2 2 2 2 2 2 2 2 2 3 3 3 2 2 2 2 3 3 3 3 3 3 3 3 3 3 3 3 3 3 2 2 1 1 1 1 2 2 2 2 2 2
Wind_Direction
250 266 259 260 267 244 217 208 208 231 230 250 248 243 245 238 234 279 320 331 309 249 280 297 296 285 274 266 254 230 219 231 247 253 247 249 247 246 234 223 223 211 204 213
299 303 275 270 268 250 243 233 227 238 261 257 247 231 239 230 209 228 264 286 280 257 269 276 278 281 282 278 263 225 227 246 254 256 256 249 246 242 234 230 225 209 208 207
274 304 342 282 255 232 229 227 203 223 243 255 272 244 231 226 219 222 242 257 254 251 250 254 260 257 261 270 267 246 251 258 252 244 251 249 246 237 232 233 223 219 221 211
238 7 247 247 248 207 222 256 225 217 233 215 232 248 256 230 214 227 236 243 256 253 260 265 263 269 272 290 276 251 255 259 256 248 251 252 241 237 238 233 224 224 224 220
143 230 275 285 262 200 212 272 248 220 227 232 265 25 329 282 211 218 232 239 246 244 245 254 265 270 287 321 303 293 277 267 260 247 246 248 249 245 241 232 232 230 224 217
156 202 244 253 273 249 103 278 257 208 203 201 109 3 275 283 257 247 258 270 270 266 261 270 281 282 303 307 303 282 271 264 259 244 235 240 247 248 243 234 234 231 233 226
193 227 261 258 273 81 178 250 267 210 198 185 199 219 253 289 285 268 266 277 276 268 267 265 272 266 277 288 276 271 272 265 255 245 238 239 246 249 244 236 234 231 232 234
174 209 253 252 137 181 226 265 265 231 213 209 231 254 265 266 267 278 285 288 279 275 286 283 260 245 272 274 272 279 279 274 266 258 257 263 246 251 242 226 229 234 235 243
195 218 250 229 217 244 227 248 257 234 234 217 242 259 265 265 263 271 268 274 276 267 286 289 267 245 259 275 286 289 288 282 280 279 268 254 237 240 245 233 228 234 229 237
246 263 261 263 262 267 257 247 249 240 233 222 243 257 268 271 269 272 269 271 270 266 276 281 276 270 267 283 285 285 285 287 282 276 275 269 253 239 233 231 229 231 232 234
251 268 285 273 250 255 270 273 272 268 249 235 238 256 258 260 262 261 262 263 254 255 264 274 282 285 287 286 280 281 282 285 281 270 263 262 258 246 240 234 230 228 226 220
232 236 228 257 266 260 258 264 261 262 271 261 238 242 247 249 251 249 257 262 266 268 269 275 282 287 288 281 266 266 278 279 272 267 255 250 257 282 270 250 255 248 243 233
244 259 249 265 278 264 250 259 265 254 249 260 258 236 236 246 247 250 259 262 260 262 265 270 277 282 285 282 272 261 261 266 265 260 250 246 247 250 274 283 265 252 246 239
248 256 268 265 267 273 270 273 272 270 263 257 252 241 234 250 261 262 263 261 263 268 270 271 274 277 279 274 266 264 264 266 268 260 249 240 239 240 244 245 254 260 252 242
251 239 242 263 274 276 273 266 273 276 275 278 265 248 250 253 261 268 270 268 273 278 279 279 280 282 283 273 266 264 263 261 260 261 255 241 238 238 239 236 242 252 264 255
267 268 254 255 259 262 251 231 244 262 267 269 271 264 257 255 268 278 279 277 275 278 281 282 281 283 283 273 268 267 263 270 274 264 259 250 241 239 237 232 234 233 236 237
250 262 255 256 259 257 247 243 240 247 255 261 266 265 267 284 293 289 290 289 277 277 278 276 281 289 286 275 264 261 261 263 269 269 257 253 245 238 235 231 232 231 229 229
232 240 236 226 229 239 250 253 251 252 253 261 269 270 266 263 270 279 288 299 307 304 298 294 296 300 295 286 271 259 259 258 253 251 252 254 254 246 236 232 230 231 233 225
262 258 255 242 230 224 235 246 252 256 260 262 271 266 265 266 271 282 297 308 304 298 298 302 306 310 299 292 289 267 261 264 264 257 250 252 255 246 238 235 232 230 226 222
278 273 264 255 247 233 239 251 252 259 262 257 266 280 285 284 283 286 291 286 276 279 291 300 304 300 294 291 292 276 266 265 264 260 254 250 245 248 246 238 234 233 229 226
286 288 278 266 267 259 240 233 237 257 268 259 247 256 271 284 286 283 285 290 294 299 300 303 306 298 294 297 297 286 275 269 266 262 257 250 244 244 244 239 235 233 232 234
303 298 289 281 275 274 267 245 241 254 268 272 272 275 284 292 293 289 277 273 288 300 304 296 297 301 311 311 298 292 286 278 273 267 256 245 240 240 240 238 233 232 232 232
295 292 287 277 263 264 273 261 247 242 250 256 260 266 274 276 274 277 289 289 292 299 306 293 301 309 317 317 304 298 295 289 281 271 260 247 238 236 235 233 232 231 230 232
291 285 282 286 285 271 271 271 260 255 257 261 262 263 268 281 289 278 275 291 300 304 301 299 306 310 316 312 304 301 298 295 288 279 271 263 251 241 236 231 234 236 235 241
279 283 289 293 275 261 258 262 263 267 273 283 285 282 278 266 269 280 287 289 295 304 300 302 308 312 312 305 303 302 303 302 297 290 274 262 253 243 238 231 231 237 240 238
274 267 262 255 253 259 257 249 255 266 276 289 295 296 299 296 289 291 296 300 303 308 308 306 306 312 313 309 305 305 307 308 306 297 286 266 250 242 244 243 245 243 243 241
276 269 271 282 279 266 257 245 246 258 258 263 284 292 297 303 308 312 312 311 309 310 310 311 313 312 313 313 310 310 312 313 313 305 291 275 260 247 244 244 240 236 238 240